Location: Castelbiague
(43.0361°N, 0.9246°E)
Time: 09:58:36
(UTC+00:00)

Cosmos 1844 Rocket - Pass Details

Date: 17 June 2021
Orbit: 823 x 846 km, 71.0° (Epoch: 01 August)

Event Time Altitude Azimuth Distance (km) Brightness Sun altitude
Rises 22:01:55 0° 330° (NNW) 3,411 7.6 -18.4°
Reaches altitude 10° 22:04:26 10° 325° (NW) 2,473 6.4 -18.7°
Maximum altitude 22:09:52 49° 252° (WSW) 1,085 3.3 -19.1°
Enters shadow 22:12:37 27° 193° (SSW) 1,562 3.7 -19.3°
